{"data":{"norad_id":48216,"intl_designator":"2021-031G","name":"ONEWEB-0198","alt_names":[],"object_type":"PAYLOAD","status":"ACTIVE","operator":null,"country":"UK","launch_date":"2021-04-25","launch_site_code":"VOSTO","launch_vehicle":null,"mission":null,"orbit_class":"UNKNOWN","rcs_meters":null,"size_class":null,"mass_kg":null,"dimensions":null,"purposes":["comms"],"wikipedia_slug":null,"has_3d_model":false,"image_url":null,"decayed_at":null,"tle_current":{"epoch":"2026-05-25T03:54:43.617312Z","epoch_age_seconds":64472,"freshness":"FRESH","line1":"1 48216U 21031G   26145.16300483  .00000052  00000+0  10599-3 0  9994","line2":"2 48216  87.8932 294.3053 0001485 109.2035 250.9255 13.14502170245467","mean_motion":13.1450217,"eccentricity":0.0001485,"inclination_deg":87.8932,"raan_deg":294.3053,"arg_perigee_deg":109.2035,"mean_anomaly_deg":250.9255,"bstar":0.00010599,"rev_number":24546,"period_min":109.54717556685,"perigee_km":1204.666564232,"apogee_km":1206.918991376,"semimajor_km":7583.929777804,"source":"CELESTRAK","updated_at":"2026-05-25T13:38:22.427545Z"}}}